Find Kosmos-2179

NORAD ID: 21855 Int'l Des: 1992-005 Owner: VVS Country: RU Constellation: GLONASS operational
MEOCIRCULAR

实时位置

正在加载3D地球...

关于 Kosmos-2179

正在加载描述...

即将过境

Passes for default location (London). Set your location on the main map for personalized predictions.

高度历史

Loading altitude history...

两行轨道根数

1 21855U 92005C 26105.09750145 .00000028 00000-0 00000+0 0 9991
2 21855 64.8552 72.1953 0014776 253.4306 198.3956 2.13102633266004
Epoch: Apr 15, 2026 • Age: 55 hours

当前状态

高度 19169.6 km
速度 3.95 km/s
星下点 43.93°N, 113.34°E
发射日期 Jan 29, 1992
运行时间 34.2 years
类型 other

技术详情

分类 Payload
质量 1300.00 kg
干质量 1200.00 kg
总质量 1300.00 kg
长度 4.00 m
直径 1.50 m
跨度 7.80 m
形状 Cyl + Ant + 2 Pan
制造商 POL
平台类型 Uragan
阶段状态 In Orbit
所有者/国家 VVS/RU

Most Searched